Regional Weather Roundup
Issued by NWS

Home | Current Version | Previous Version | Graphics & Text | Print | Product List | Glossary On
Versions: 1 2 3 4 5 6 7 8 9 10 11 12 13 14 15 16 17 18 19 20 21 22 23 24 25 26 27 28 29 30 31 32 33 34 35 36 37 38 39 40 41 42 43 44 45 46 47 48 49 50
000
ASUS43 KFSD 211102
RWRSD

WEATHER ROUNDUP FOR SOUTH DAKOTA
NATIONAL WEATHER SERVICE SIOUX FALLS SD
600 AM CDT THU SEP 21 2017

NOTE: "FAIR" INDICATES FEW OR NO CLOUDS BELOW 12,000 FEET WITH NO
SIGNIFICANT WEATHER AND/OR OBSTRUCTIONS TO VISIBILITY.


SDZ001>005-009-010-012>017-211200-
NORTHWEST AND NORTH CENTRAL SOUTH DAKOTA

CITY           SKY/WX    TMP DP  RH WIND       PRES   REMARKS
BUFFALO          N/A     62  38  40 E9        29.58F
FAITH            N/A     57  38  48 SE16      29.66F
MOBRIDGE       CLOUDY    59  47  64 S14       29.71S
$$

SDZ012>016-024>037-041>051-057-063-072>074-211200-
SOUTHWEST AND SOUTH CENTRAL SOUTH DAKOTA

CITY           SKY/WX    TMP DP  RH WIND       PRES   REMARKS
RAPID CTY ARPT NOT AVBL
PIERRE         CLEAR     56  44  64 SE16      29.75S
CUSTER         CLEAR     49  31  49 VRB3      29.75F
ELLSWORTH AFB  CLEAR     59  35  40 S17       29.63F
PHILIP         CLEAR     61  41  47 SE15      29.69F
PINE RIDGE     CLEAR     62  43  49 S23G33    29.69F
SPEARFISH      FAIR      50  37  62 W7        29.67S
WINNER         FAIR      53  47  79 SE15      29.79F
$$

SDZ004>011-016>023-039-040-211200-
NORTHEAST SOUTH DAKOTA

CITY           SKY/WX    TMP DP  RH WIND       PRES   REMARKS
ABERDEEN       CLEAR     50  46  86 S6        29.82F
WATERTOWN      CLEAR     52  44  74 S10       29.88S
BROOKINGS      CLEAR     52  45  77 SE12      29.90F
SISSETON         N/A     49  46  90 VRB6      29.88S
$$

SDZ017-020-022-023-036>040-048>070-211200-
SOUTHEAST SOUTH DAKOTA

CITY           SKY/WX    TMP DP  RH WIND       PRES   REMARKS
SIOUX FALLS    CLEAR     55  49  80 E10       29.90F
HURON          CLEAR     52  47  83 S9        29.85S
CHAMBERLAIN    CLEAR     55  50  83 SE12      29.80F
MITCHELL       CLEAR     53  47  79 S8        29.86F
YANKTON        CLEAR     51  47  86 E6        29.87F
$$

ABBREVIATIONS USED IN REMARKS
   TC - TEMPERATURE IN CELSIUS
  WCI - WIND CHILL INDEX
   HX - HEAT INDEX
  VSB - VISIBILITY




USA.gov is the U.S. government's official web portal to all federal, state and local government web resources and services.